Location: Fort Wayne
(41.1310°N, 85.1290°W)
Time: 11:57:57
(UTC-05:00)

Amateur Radio Satellites - All Passes

Search period start: 28 November 2014 11:27
Search period end: 29 November 2014 11:27
Location: Fort Wayne, 41.1310°N, 85.1290°W

Satellite Date Start Highest point End Downlink Frequencies (MHz)
Time Altitude Azimuth
50 SAT 28 Nov 11:29:57 11:34:03 90° 104° (ESE) 11:38:08 437.505
HO-68 28 Nov 11:30:08 11:35:30 24° 303° (WNW) 11:40:52 435.675
FUNcube-1 28 Nov 11:33:21 11:37:23 42° 288° (WNW) 11:41:28 145.935
POLYITAN 1 28 Nov 11:33:28 11:37:08 28° 264° (W) 11:40:49 437.675
AAUSAT CUBESAT 2 28 Nov 11:33:58 11:34:53 11° 298° (WNW) 11:35:48 437.432
QB50P2 28 Nov 11:34:27 11:38:05 27° 264° (W) 11:41:45 145.880/145.840
Oscar 11 28 Nov 11:36:25 11:39:30 19° 294° (WNW) 11:42:34 145.826/435.025
AISAT 28 Nov 11:37:05 11:41:28 65° 286° (WNW) 11:45:49 437.250
DUCHIFAT 1 28 Nov 11:38:54 11:42:25 25° 265° (W) 11:45:56 145.980
CUBEBUG 1 28 Nov 11:40:19 11:44:33 47° 99° (E) 11:48:43 437.445
ANTELSAT 28 Nov 11:46:49 11:49:16 15° 268° (W) 11:51:44 437.575/2403.000
Oscar 19 28 Nov 11:54:40 11:57:07 14° 60° (ENE) 11:59:33 437.125/150
HUMSAT D 28 Nov 11:59:00 12:02:49 35° 289° (WNW) 12:06:40 437.325/437.525
NANOSAT C BR1 28 Nov 11:59:57 12:02:28 15° 268° (W) 12:04:59 145.865
SO-50 28 Nov 12:00:53 12:05:38 51° 53° (NE) 12:10:24 436.795
DX 1 28 Nov 12:06:36 12:08:07 12° 299° (WNW) 12:09:39 434.975-435.025
BUGSAT 1 28 Nov 12:07:03 12:09:34 15° 268° (W) 12:12:04 437.445
UWE-3 28 Nov 12:07:07 12:09:53 17° 294° (WNW) 12:12:41 435.000/436.395/437.385
QB50P1 28 Nov 12:11:21 12:12:52 12° 270° (W) 12:14:23 145.935-145.965
CUBEBUG 2 28 Nov 12:13:00 12:15:03 13° 296° (WNW) 12:17:07 437.445
TISAT 1 28 Nov 12:35:37 12:39:43 48° 100° (E) 12:43:46 437.305
VELOX 1 28 Nov 12:47:27 12:49:37 14° 298° (WNW) 12:51:48 145.980
ITAMSAT 1 28 Nov 12:52:18 12:55:53 19° 62° (ENE) 12:59:27 435.822/435.867
SPROUT 28 Nov 12:53:37 12:57:54 70° 102° (ESE) 13:02:09 437.525
ESTCUBE 1 28 Nov 12:54:11 12:58:01 27° 292° (WNW) 13:01:49 437.505/2401.250
VERMONT LUNAR 28 Nov 12:58:38 13:00:42 15° 148° (SSE) 13:02:47 437.305
PHONESAT 2.4 28 Nov 12:59:42 13:00:38 11° 144° (SE) 13:01:34 2401.200-2431.200
ITUPSAT 1 28 Nov 13:00:36 13:02:57 13° 90° (E) 13:05:16 437.325
SWISSCUBE 28 Nov 13:09:38 13:13:00 19° 93° (E) 13:16:20 437.505
CUBEBUG 1 28 Nov 13:17:51 13:20:32 16° 296° (WNW) 13:23:12 437.445
CUSAT 1 28 Nov 13:22:09 13:24:45 65° 280° (W) 13:27:22 437.405
AO-7 28 Nov 13:27:44 13:30:15 12° 42° (NE) 13:32:45 29.400- 29.500
YUBILEINY 28 Nov 13:28:29 13:36:58 53° 76° (ENE) 13:45:22 435.215
Oscar 19 28 Nov 13:30:39 13:35:46 79° 257° (WSW) 13:40:55 437.125/150
Gurwin Techsat 1B 28 Nov 13:38:55 13:43:25 29° 66° (ENE) 13:47:56 435.225
BEESAT 28 Nov 13:39:20 13:43:43 34° 97° (E) 13:48:03 436.000
SO-50 28 Nov 13:42:15 13:45:51 21° 249° (WSW) 13:49:27 436.795
HORYU 2 28 Nov 13:42:43 13:44:01 11° 61° (ENE) 13:45:18 437.375
AUBIESAT-1 28 Nov 13:55:09 13:59:56 50° 104° (ESE) 14:04:32 437.475
DANDE 28 Nov 14:00:43 14:02:46 20° 285° (WNW) 14:04:47 436.750
M-CUBED/EXP-1 PRIME 28 Nov 14:02:15 14:07:10 64° 106° (ESE) 14:11:54 437.505
TISAT 1 28 Nov 14:12:45 14:15:09 15° 296° (WNW) 14:17:32 437.305
MaSat-1 28 Nov 14:15:45 14:17:35 15° 109° (ESE) 14:19:20 437.345
STARS 28 Nov 14:15:54 14:16:24 10° 90° (E) 14:16:53 437.465
ITAMSAT 1 28 Nov 14:29:47 14:34:54 57° 259° (W) 14:40:03 435.822/435.867
SPROUT 28 Nov 14:32:08 14:33:24 11° 298° (WNW) 14:34:41 437.525
VERMONT LUNAR 28 Nov 14:35:11 14:38:41 49° 163° (SSE) 14:42:11 437.305
PHONESAT 2.4 28 Nov 14:35:19 14:38:48 40° 159° (SSE) 14:42:18 2401.200-2431.200
ITUPSAT 1 28 Nov 14:36:30 14:41:16 64° 287° (WNW) 14:45:59 437.325
O/OREOS (USA 219) 28 Nov 14:45:08 14:48:27 20° 56° (NE) 14:51:45 437.305
SWISSCUBE 28 Nov 14:46:30 14:51:05 46° 289° (WNW) 14:55:37 437.505
JAS-2 28 Nov 14:50:54 14:53:00 11° 50° (NE) 14:55:07 435.910
KKS-1 28 Nov 14:59:03 15:03:21 48° 100° (E) 15:07:38 437.445
RS-15 28 Nov 15:03:46 15:13:11 35° 106° (ESE) 15:22:31 29.354- 29.394
AO-7 28 Nov 15:13:11 15:21:04 51° 64° (ENE) 15:29:01 29.400- 29.500
HORYU 2 28 Nov 15:15:38 15:20:03 76° 257° (WSW) 15:24:30 437.375
BEESAT 28 Nov 15:17:29 15:21:24 26° 294° (WNW) 15:25:18 436.000
Gurwin Techsat 1B 28 Nov 15:18:23 15:23:14 36° 263° (W) 15:28:08 435.225
YUBILEINY 28 Nov 15:25:54 15:33:20 33° 276° (W) 15:40:46 435.215
AUBIESAT-1 28 Nov 15:30:52 15:34:31 21° 301° (WNW) 15:38:06 437.475
M-CUBED/EXP-1 PRIME 28 Nov 15:38:28 15:41:39 17° 303° (WNW) 15:44:47 437.505
STARS 28 Nov 15:48:58 15:53:21 71° 285° (WNW) 15:57:43 437.465
MaSat-1 28 Nov 15:49:51 15:51:54 18° 301° (WNW) 15:53:51 437.345
VERMONT LUNAR 28 Nov 16:13:25 16:17:03 83° 180° (S) 16:20:41 437.305
PHONESAT 2.4 28 Nov 16:13:43 16:17:27 81° 175° (S) 16:21:10 2401.200-2431.200
O/OREOS (USA 219) 28 Nov 16:23:49 16:28:02 42° 254° (WSW) 16:32:15 437.305
MOZHAYETS 4 28 Nov 16:25:30 16:27:10 12° 89° (E) 16:28:51
JAS-2 28 Nov 16:28:53 16:36:18 52° 69° (ENE) 16:43:49 435.910
CUTE-I 28 Nov 16:34:52 16:37:09 13° 58° (ENE) 16:39:25 437.470
KKS-1 28 Nov 16:36:49 16:39:37 17° 296° (WNW) 16:42:24 437.445
AO-7 28 Nov 17:06:34 17:14:01 37° 262° (W) 17:21:34 29.400- 29.500
RS-15 28 Nov 17:13:53 17:24:45 67° 308° (NW) 17:35:42 29.354- 29.394
GONETS M04 28 Nov 17:26:21 17:28:46 11° 54° (NE) 17:31:10
Cubesat XI-IV 28 Nov 17:30:57 17:35:56 40° 69° (ENE) 17:40:55 437.490
VERMONT LUNAR 28 Nov 17:51:54 17:55:26 52° 196° (SSW) 17:58:58 437.305
PHONESAT 2.4 28 Nov 17:52:30 17:56:11 63° 193° (SSW) 17:59:52 2401.200-2431.200
MOZHAYETS 4 28 Nov 18:00:13 18:04:52 69° 285° (WNW) 18:09:28
PRISM 28 Nov 18:10:20 18:13:53 26° 96° (E) 18:17:24 437.425
CUTE-I 28 Nov 18:11:03 18:16:26 90° 263° (W) 18:21:49 437.470
JAS-2 28 Nov 18:14:35 18:21:26 35° 266° (W) 18:28:29 435.910
CUBESAT XI-V 28 Nov 18:14:55 18:16:42 12° 89° (E) 18:18:28 437.345
STRAND 1 28 Nov 18:16:33 18:18:39 12° 90° (E) 18:20:44 437.568
HO-68 28 Nov 18:29:03 18:30:13 10° 47° (NE) 18:31:23 435.675
BEESAT 2 28 Nov 18:50:25 18:52:11 13° 108° (ESE) 18:53:56 435.950
Cubesat XI-IV 28 Nov 19:11:42 19:16:07 26° 265° (W) 19:20:34 437.490
GONETS M04 28 Nov 19:19:04 19:27:48 59° 78° (ENE) 19:36:24
AIST 1 28 Nov 19:23:41 19:27:43 37° 91° (E) 19:31:47
RS-15 28 Nov 19:31:08 19:39:44 25° 337° (NNW) 19:48:28 29.354- 29.394
VERMONT LUNAR 28 Nov 19:31:10 19:33:26 16° 212° (SSW) 19:35:41 437.305
PHONESAT 2.4 28 Nov 19:31:42 19:34:37 22° 209° (SSW) 19:37:30 2401.200-2431.200
PCSat 28 Nov 19:33:10 19:38:33 75° 117° (ESE) 19:43:59 145.827
CANX-2 28 Nov 19:35:06 19:37:13 14° 64° (ENE) 19:39:19 2200.000
AIST 2 28 Nov 19:36:37 19:39:42 20° 111° (ESE) 19:42:48 435.215
PRISM 28 Nov 19:45:48 19:49:22 27° 292° (WNW) 19:52:54 437.425
GOMX 1 28 Nov 19:48:57 19:51:18 14° 65° (ENE) 19:53:34 467.674
CUBESAT XI-V 28 Nov 19:49:58 19:54:36 67° 285° (WNW) 19:59:11 437.345
STRAND 1 28 Nov 19:53:16 19:58:23 75° 286° (WNW) 20:03:27 437.568
CUTE-I 28 Nov 19:56:05 19:57:11 11° 272° (W) 19:58:17 437.470
CUTE 1.7 + AOD 2 28 Nov 20:07:38 20:11:12 27° 69° (ENE) 20:14:48 437.475
BEESAT 3 28 Nov 20:07:50 20:11:56 84° 303° (WNW) 20:16:07 437.485
HO-68 28 Nov 20:09:25 20:16:20 54° 67° (ENE) 20:23:17 435.675
BEESAT 2 28 Nov 20:25:51 20:29:55 61° 305° (NW) 20:34:05 435.950
DOVE 4 28 Nov 20:29:21 20:33:05 26° 69° (ENE) 20:36:40 437.250
BRITE-PL 28 Nov 20:30:09 20:34:54 52° 74° (ENE) 20:39:19 437.365/2234.400
SEEDS 28 Nov 20:36:14 20:40:16 49° 73° (ENE) 20:44:21 437.485
DELFI C3 28 Nov 20:38:27 20:41:03 17° 66° (ENE) 20:43:40 145.870
CINEMA 3 28 Nov 20:43:22 20:46:40 22° 68° (ENE) 20:49:55 145.822/145.860
UKube-1 28 Nov 20:46:01 20:49:27 23° 67° (ENE) 20:52:54 .
AAUSAT CUBESAT 2 28 Nov 20:46:56 20:50:56 48° 73° (ENE) 20:54:58 437.432
Oscar 11 28 Nov 20:54:35 20:58:22 31° 70° (ENE) 21:02:09 145.826/435.025
FUNcube-1 28 Nov 20:55:31 20:57:33 13° 64° (ENE) 20:59:35 145.935
AISAT 28 Nov 21:01:54 21:03:32 12° 61° (ENE) 21:05:10 437.250
AIST 1 28 Nov 21:02:22 21:05:31 19° 288° (WNW) 21:08:41
COMPASS 1 28 Nov 21:04:13 21:08:22 88° 77° (ENE) 21:12:35 437.405
CANX-2 28 Nov 21:08:34 21:12:41 54° 260° (W) 21:16:51 2200.000
AIST 2 28 Nov 21:14:01 21:18:02 41° 308° (NW) 21:22:07 435.215
GONETS M04 28 Nov 21:16:46 21:24:01 30° 277° (W) 21:31:13
HUMSAT D 28 Nov 21:17:32 21:19:43 14° 64° (ENE) 21:21:55 437.325/437.525
PCSat 28 Nov 21:18:44 21:22:34 19° 316° (NW) 21:26:25 145.827
DX 1 28 Nov 21:23:39 21:27:57 60° 73° (ENE) 21:32:17 434.975-435.025
GOMX 1 28 Nov 21:24:23 21:29:02 59° 259° (W) 21:33:24 467.674
UWE-3 28 Nov 21:27:21 21:31:10 35° 71° (ENE) 21:34:57 435.000/436.395/437.385
CUBEBUG 2 28 Nov 21:33:18 21:37:22 47° 73° (ENE) 21:41:22 437.445
CUTE 1.7 + AOD 2 28 Nov 21:43:39 21:47:06 24° 265° (W) 21:50:35 437.475
BEESAT 3 28 Nov 21:49:12 21:50:50 12° 322° (NW) 21:52:29 437.485
RS-15 28 Nov 21:49:27 21:57:28 22° 14° (NNE) 22:05:40 29.354- 29.394
ZACube-1 28 Nov 21:55:09 21:59:17 62° 75° (ENE) 22:03:23 437.345
HO-68 28 Nov 21:58:13 22:04:18 29° 265° (W) 22:10:26 435.675
DOVE 4 28 Nov 22:06:54 22:10:47 28° 264° (W) 22:14:31 437.250
VELOX 1 28 Nov 22:06:58 22:11:20 55° 73° (ENE) 22:15:42 145.980
BRITE-PL 28 Nov 22:10:38 22:13:37 16° 267° (W) 22:16:29 437.365/2234.400
DELFI C3 28 Nov 22:12:12 22:16:02 40° 262° (W) 22:19:54 145.870
SEEDS 28 Nov 22:14:18 22:16:24 14° 269° (W) 22:18:30 437.485
ESTCUBE 1 28 Nov 22:17:16 22:21:06 27° 68° (ENE) 22:24:57 437.505/2401.250
50 SAT 28 Nov 22:18:48 22:22:43 56° 74° (ENE) 22:26:40 437.505
CINEMA 3 28 Nov 22:19:52 22:23:44 31° 263° (W) 22:27:31 145.822/145.860
UKube-1 28 Nov 22:21:34 22:25:27 32° 263° (W) 22:29:22 .
AAUSAT CUBESAT 2 28 Nov 22:24:48 22:26:54 14° 269° (W) 22:29:01 437.432
FUNcube-1 28 Nov 22:29:24 22:33:29 53° 260° (W) 22:37:34 145.935
Oscar 11 28 Nov 22:31:08 22:34:33 23° 266° (W) 22:37:59 145.826/435.025
AISAT 28 Nov 22:35:06 22:39:34 73° 258° (WSW) 22:44:02 437.250
CUBEBUG 1 28 Nov 22:36:38 22:40:47 40° 71° (ENE) 22:44:56 437.445
ISS 28 Nov 22:38:17 22:41:27 47° 139° (SE) 22:44:37 145.825
POPSAT HIP 1 28 Nov 22:44:16 22:47:13 18° 93° (E) 22:50:09 437.405
HUMSAT D 28 Nov 22:51:09 22:55:08 49° 260° (W) 22:59:08 437.325/437.525
TIGRISAT 28 Nov 22:52:19 22:56:24 34° 97° (E) 23:00:33 435.000
DANDE 28 Nov 22:55:49 22:59:18 19° 74° (ENE) 23:03:27 436.750
DX 1 28 Nov 23:02:51 23:04:35 12° 269° (W) 23:06:18 434.975-435.025
UWE-3 28 Nov 23:04:51 23:07:49 19° 266° (W) 23:10:47 435.000/436.395/437.385
UNISAT 6 28 Nov 23:07:33 23:11:56 51° 100° (E) 23:16:23 437.425
CUBEBUG 2 28 Nov 23:12:08 23:14:20 14° 268° (W) 23:16:31 437.445
POLYITAN 1 28 Nov 23:18:54 23:22:59 45° 99° (E) 23:27:03 437.675
QB50P2 28 Nov 23:19:38 23:23:44 46° 99° (E) 23:27:48 145.880/145.840
DUCHIFAT 1 28 Nov 23:23:33 23:27:40 50° 100° (E) 23:31:45 145.980
TISAT 1 28 Nov 23:28:22 23:32:17 37° 71° (ENE) 23:36:13 437.305
ZACube-1 28 Nov 23:35:15 23:36:03 10° 270° (W) 23:36:51 437.345
ANTELSAT 28 Nov 23:36:38 23:41:08 77° 284° (WNW) 23:45:42 437.575/2403.000
NANOSAT C BR1 28 Nov 23:43:26 23:47:41 87° 104° (ESE) 23:51:54 145.865
VELOX 1 28 Nov 23:45:55 23:48:15 14° 269° (W) 23:50:34 145.980
SPROUT 28 Nov 23:47:49 23:52:01 53° 73° (ENE) 23:56:13 437.525
BUGSAT 1 28 Nov 23:47:54 23:51:59 81° 103° (ESE) 23:56:01 437.445
MaSat-1 28 Nov 23:52:46 23:54:39 21° 59° (ENE) 23:56:34 437.345
QB50P1 28 Nov 23:53:50 23:58:03 71° 285° (WNW) 00:02:14 145.935-145.965
ESTCUBE 1 28 Nov 23:53:56 23:57:53 29° 264° (W) 00:01:52 437.505/2401.250
50 SAT 28 Nov 23:57:18 23:58:23 11° 270° (W) 23:59:27 437.505
CUSAT 1 28 Nov 23:57:47 00:02:48 78° 81° (E) 00:09:33 437.405
RS-15 29 Nov 00:02:47 00:13:32 49° 45° (NE) 00:24:41 29.354- 29.394
ITUPSAT 1 29 Nov 00:07:33 00:10:37 17° 63° (ENE) 00:13:42 437.325
CUBEBUG 1 29 Nov 00:14:13 00:17:19 19° 267° (W) 00:20:25 437.445
ISS 29 Nov 00:15:23 00:18:13 26° 336° (NNW) 00:21:03 145.825
SWISSCUBE 29 Nov 00:16:27 00:20:10 23° 65° (ENE) 00:23:53 437.505
POPSAT HIP 1 29 Nov 00:19:22 00:23:15 36° 289° (WNW) 00:27:07 437.405
TIGRISAT 29 Nov 00:29:29 00:32:58 23° 293° (WNW) 00:36:30 435.000
DANDE 29 Nov 00:37:58 00:42:45 56° 263° (W) 00:49:11 436.750
AUBIESAT-1 29 Nov 00:44:29 00:48:36 61° 69° (ENE) 00:53:06 437.475
UNISAT 6 29 Nov 00:45:35 00:48:20 16° 296° (WNW) 00:51:07 437.425
BEESAT 29 Nov 00:45:54 00:50:21 40° 70° (ENE) 00:54:50 436.000
M-CUBED/EXP-1 PRIME 29 Nov 00:52:00 00:56:08 81° 71° (ENE) 01:00:42 437.505
POLYITAN 1 29 Nov 00:55:59 00:58:34 16° 295° (WNW) 01:01:09 437.675
QB50P2 29 Nov 00:56:44 00:59:16 16° 296° (WNW) 01:01:48 145.880/145.840
DUCHIFAT 1 29 Nov 01:00:49 01:03:07 15° 296° (WNW) 01:05:25 145.980
TISAT 1 29 Nov 01:05:14 01:08:15 19° 266° (W) 01:11:15 437.305
STARS 29 Nov 01:13:52 01:14:34 10° 60° (ENE) 01:15:16 437.465
SPROUT 29 Nov 01:26:19 01:28:25 13° 269° (W) 01:30:30 437.525
Oscar 19 29 Nov 01:42:30 01:47:16 37° 97° (E) 01:52:02 437.125/150
CUSAT 1 29 Nov 01:43:03 01:45:46 14° 270° (W) 01:48:49 437.405
ITUPSAT 1 29 Nov 01:43:20 01:48:03 55° 259° (W) 01:52:49 437.325
SWISSCUBE 29 Nov 01:53:16 01:57:46 40° 262° (W) 02:02:18 437.505
ISS 29 Nov 01:53:59 01:55:42 13° 357° (N) 01:57:26 145.825
KKS-1 29 Nov 01:57:22 02:01:34 44° 71° (ENE) 02:05:48 437.445
Gurwin Techsat 1B 29 Nov 01:57:46 01:58:45 10° 88° (E) 01:59:43 435.225
RS-15 29 Nov 02:15:19 02:26:07 55° 248° (WSW) 02:37:25 29.354- 29.394
SO-50 29 Nov 02:17:42 02:20:17 15° 108° (ESE) 02:22:55 436.795
AUBIESAT-1 29 Nov 02:22:20 02:24:06 12° 267° (W) 02:25:56 437.475
BEESAT 29 Nov 02:24:40 02:28:20 22° 266° (W) 02:32:01 436.000
YUBILEINY 29 Nov 02:28:48 02:37:24 61° 91° (E) 02:45:59 435.215
PCSat 29 Nov 02:40:07 02:41:59 12° 36° (NE) 02:43:52 145.827
ITAMSAT 1 29 Nov 02:42:43 02:47:46 51° 100° (E) 02:52:46 435.822/435.867
STARS 29 Nov 02:45:59 02:50:23 81° 257° (WSW) 02:54:48 437.465
HORYU 2 29 Nov 03:08:06 03:11:31 21° 94° (E) 03:14:55 437.375
BEESAT 2 29 Nov 03:09:49 03:11:25 12° 38° (NE) 03:13:02 435.950
AO-7 29 Nov 03:17:12 03:21:18 14° 88° (E) 03:25:21 29.400- 29.500
Oscar 19 29 Nov 03:22:08 03:26:27 28° 294° (WNW) 03:30:46 437.125/150
MOZHAYETS 4 29 Nov 03:28:13 03:30:01 12° 61° (ENE) 03:31:49
ISS 29 Nov 03:30:54 03:33:19 19° 17° (NNE) 03:35:45 145.825
Gurwin Techsat 1B 29 Nov 03:34:03 03:39:24 90° 284° (WNW) 03:44:42 435.225
KKS-1 29 Nov 03:35:31 03:38:26 17° 267° (W) 03:41:20 437.445
SO-50 29 Nov 03:55:50 04:00:17 59° 306° (NW) 04:04:55 436.795
AIST 2 29 Nov 03:58:19 04:01:10 17° 42° (NE) 04:04:00 435.215
PCSat 29 Nov 04:21:14 04:26:36 58° 57° (ENE) 04:31:55 145.827
ITAMSAT 1 29 Nov 04:23:08 04:26:52 20° 297° (WNW) 04:30:35 435.822/435.867
YUBILEINY 29 Nov 04:27:18 04:34:43 30° 292° (WNW) 04:42:10 435.215
BEESAT 3 29 Nov 04:27:56 04:32:05 58° 55° (NE) 04:36:10 437.485
HORYU 2 29 Nov 04:44:09 04:48:17 36° 290° (WNW) 04:52:24 437.375
BEESAT 2 29 Nov 04:46:11 04:50:25 81° 58° (ENE) 04:54:34 435.950
O/OREOS (USA 219) 29 Nov 04:57:40 05:01:03 21° 102° (ESE) 05:04:25 437.305
PRISM 29 Nov 05:01:43 05:04:51 21° 66° (ENE) 05:07:59 437.425
MOZHAYETS 4 29 Nov 05:02:01 05:06:36 74° 258° (WSW) 05:11:15
AO-7 29 Nov 05:06:54 05:15:18 78° 107° (ESE) 05:23:40 29.400- 29.500
ISS 29 Nov 05:07:04 05:10:22 81° 35° (NE) 05:13:40 145.825
Gurwin Techsat 1B 29 Nov 05:16:25 05:18:34 13° 302° (WNW) 05:20:42 435.225
CUBESAT XI-V 29 Nov 05:18:45 05:20:59 13° 62° (ENE) 05:23:14 437.345
JAS-2 29 Nov 05:24:51 05:31:20 42° 96° (E) 05:37:03 435.910
STRAND 1 29 Nov 05:31:48 05:35:27 20° 63° (ENE) 05:39:07 437.568
AIST 2 29 Nov 05:35:58 05:40:13 63° 241° (WSW) 05:44:25 435.215
SO-50 29 Nov 05:40:32 05:41:52 11° 327° (NNW) 05:43:13 436.795
Cubesat XI-IV 29 Nov 05:49:35 05:52:43 16° 91° (E) 05:55:50 437.490
PCSat 29 Nov 06:05:44 06:09:31 20° 255° (WSW) 06:13:17 145.827
BEESAT 3 29 Nov 06:07:48 06:09:48 13° 251° (WSW) 06:11:48 437.485
CUTE-I 29 Nov 06:28:39 06:33:32 36° 97° (E) 06:38:22 437.470
GONETS M04 29 Nov 06:30:24 06:33:06 12° 73° (ENE) 06:35:47
O/OREOS (USA 219) 29 Nov 06:36:04 06:40:12 36° 298° (WNW) 06:44:20 437.305
PRISM 29 Nov 06:36:19 06:40:10 34° 262° (W) 06:44:03 437.425
ISS 29 Nov 06:45:32 06:46:33 11° 231° (SW) 06:47:34 145.825
CUBESAT XI-V 29 Nov 06:53:08 06:57:50 70° 259° (WSW) 07:02:34 437.345
AO-7 29 Nov 07:00:48 07:07:16 26° 306° (NW) 07:13:43 29.400- 29.500
AIST 1 29 Nov 07:08:18 07:12:41 75° 264° (W) 07:16:59
STRAND 1 29 Nov 07:09:14 07:14:14 52° 260° (W) 07:19:16 437.568
JAS-2 29 Nov 07:10:06 07:16:10 33° 297° (WNW) 07:21:38 435.910
Cubesat XI-IV 29 Nov 07:27:59 07:33:15 65° 287° (WNW) 07:38:30 437.490
CUTE-I 29 Nov 08:08:56 08:13:27 29° 294° (WNW) 08:17:57 437.470
GONETS M04 29 Nov 08:19:24 08:28:05 68° 93° (E) 08:36:51
BRITE-PL 29 Nov 08:36:24 08:38:29 13° 92° (E) 08:40:35 437.365/2234.400
COMPASS 1 29 Nov 08:49:49 08:52:15 15° 92° (E) 08:54:40 437.405
CANX-2 29 Nov 08:54:39 08:58:14 25° 95° (E) 09:01:48 2200.000
HO-68 29 Nov 09:24:30 09:31:32 56° 101° (ESE) 09:38:30 435.675
GOMX 1 29 Nov 09:26:13 09:30:05 35° 98° (E) 09:34:04 467.674
CUTE 1.7 + AOD 2 29 Nov 09:28:20 09:32:34 55° 100° (E) 09:36:47 437.475
POPSAT HIP 1 29 Nov 09:38:18 09:40:46 15° 64° (ENE) 09:43:13 437.405
ZACube-1 29 Nov 09:46:01 09:47:39 12° 91° (E) 09:49:17 437.345
TIGRISAT 29 Nov 09:51:47 09:55:27 29° 69° (ENE) 09:59:09 435.000
DELFI C3 29 Nov 09:53:19 09:56:53 28° 96° (E) 10:00:26 145.870
SEEDS 29 Nov 09:56:40 10:00:58 81° 284° (WNW) 10:05:15 437.485
VELOX 1 29 Nov 10:01:25 10:01:47 10° 89° (E) 10:02:09 145.980
DOVE 4 29 Nov 10:05:05 10:09:18 73° 102° (ESE) 10:13:40 437.250
AAUSAT CUBESAT 2 29 Nov 10:06:05 10:10:21 85° 284° (WNW) 10:14:35 437.432
UNISAT 6 29 Nov 10:07:05 10:11:07 44° 72° (ENE) 10:15:12 437.425
UKube-1 29 Nov 10:09:12 10:13:19 41° 99° (E) 10:17:23 .
POLYITAN 1 29 Nov 10:12:30 10:16:21 35° 71° (ENE) 10:20:13 437.675
QB50P2 29 Nov 10:13:00 10:16:52 35° 71° (ENE) 10:20:45 145.880/145.840
BRITE-PL 29 Nov 10:13:18 10:17:17 47° 287° (WNW) 10:21:22 437.365/2234.400
CINEMA 3 29 Nov 10:14:04 10:18:16 55° 100° (E) 10:22:36 145.822/145.860
DUCHIFAT 1 29 Nov 10:16:30 10:20:26 38° 71° (ENE) 10:24:22 145.980
Oscar 11 29 Nov 10:17:34 10:21:54 63° 101° (E) 10:26:12 145.826/435.025
FUNcube-1 29 Nov 10:18:18 10:21:58 27° 96° (E) 10:25:41 145.935
GONETS M04 29 Nov 10:18:30 10:25:38 27° 293° (WNW) 10:32:51
COMPASS 1 29 Nov 10:24:09 10:28:13 46° 287° (WNW) 10:32:18 437.405
AISAT 29 Nov 10:27:17 10:30:41 21° 94° (E) 10:34:03 437.250
CANX-2 29 Nov 10:30:28 10:34:08 28° 291° (WNW) 10:37:47 2200.000
ANTELSAT 29 Nov 10:36:03 10:40:18 86° 257° (WSW) 10:44:36 437.575/2403.000
HUMSAT D 29 Nov 10:36:10 10:39:42 26° 96° (E) 10:43:14 437.325/437.525
NANOSAT C BR1 29 Nov 10:36:14 10:40:27 65° 74° (ENE) 10:44:39 145.865
BUGSAT 1 29 Nov 10:37:59 10:42:08 56° 74° (ENE) 10:46:16 437.445
QB50P1 29 Nov 10:46:38 10:50:53 85° 76° (ENE) 10:55:09 145.935-145.965
SO-50 29 Nov 10:47:38 10:51:08 19° 42° (NE) 10:54:39 436.795
DX 1 29 Nov 10:48:23 10:52:43 70° 286° (WNW) 10:57:01 434.975-435.025
UWE-3 29 Nov 10:53:16 10:57:34 82° 103° (ESE) 11:01:58 435.000/436.395/437.385
CUBEBUG 2 29 Nov 11:00:49 11:05:05 72° 285° (WNW) 11:09:28 437.445
GOMX 1 29 Nov 11:05:03 11:08:02 19° 293° (WNW) 11:11:04 467.674
CUTE 1.7 + AOD 2 29 Nov 11:05:49 11:08:02 14° 296° (WNW) 11:10:15 437.475
POPSAT HIP 1 29 Nov 11:12:09 11:16:16 48° 260° (W) 11:20:24 437.405
HO-68 29 Nov 11:12:51 11:18:51 30° 300° (WNW) 11:24:49 435.675
